Regional Weather Roundup
Issued by NWS

Home | Current Version | Previous Version | Text Only | Print | Product List | Glossary On
Versions: 1 2 3 4 5 6 7 8 9 10 11 12 13 14 15 16 17 18 19 20 21 22 23 24 25 26 27 28 29 30 31 32 33 34 35 36 37 38 39 40 41 42 43 44 45 46 47 48 49 50
000
ASUS43 KIND 220909
RWRIN

WEATHER ROUNDUP FOR INDIANA
NATIONAL WEATHER SERVICE INDIANAPOLIS IN
400 AM EST THU FEB 22 2018

NOTE: "FAIR" INDICATES FEW OR NO CLOUDS BELOW 12,000 FEET WITH NO
SIGNIFICANT WEATHER AND/OR OBSTRUCTIONS TO VISIBILITY.

* - STATION DOES NOT REPORT WEATHER SUCH AS PRECIPITATION OR FOG.

+ - STATION NOT QUALITY CONTROLLED BY THE NATIONAL WEATHER SERVICE.
    USE DATA WITH CAUTION...ESPECIALLY DEWPOINT AND RELATIVE
    HUMIDITY OBSERVATIONS.

INZ001>003-010>013-019-020-221000-
NORTHWEST INDIANA

CITY           SKY/WX    TMP DP  RH WIND       PRES   REMARKS
GARY /AIRPORT/ MOCLDY    33  28  83 NE15      30.54F WCI  22
LA PORTE +     CLOUDY    31  28  88 NE9       30.51F WCI  23
MICHIGAN CITY+ CLOUDY    30  28  93 N6        30.54F WCI  24
MONTICELLO +   CLOUDY    35  33  94 NE10      30.44F WCI  27
RENSSELAER +   CLOUDY    32  30  93 NE15      30.47F WCI  22
VALPARAISO     CLOUDY    33  28  81 NE10      30.50F WCI  25

$$

LMZ046-743>745-221000-
SOUTHERN LAKE MICHIGAN

STATION/POSITION TIME  TEMP    WIND        PRES    WAVE
                       AIR SEA DIR/SP/G            HT
                 (UTC) (F)     (DEG/KT/KT) (MB)    (FT)
BURNS HARBOR     0840   31      50/ 18/ 20 1034.2F
MICHIGAN CITY    0840   30      30/ 17/ 19   N/A

$$

INZ004-005-014>016-021>024-221000-
NORTH CENTRAL INDIANA

CITY           SKY/WX    TMP DP  RH WIND       PRES   REMARKS
GOSHEN         CLOUDY    34  31  88 E9        30.51F WCI  27
LOGANSPORT +   LGT RAIN  36  32  87 E12       30.47F WCI  27
PERU/GRISSOM   LGT RAIN  36  36 100 E17G24    30.45F WCI  26
ROCHESTER +    LGT RAIN  37  36  93 E10       30.49F WCI  30
SOUTH BEND     CLOUDY    30  27  88 NE7       30.53F WCI  23
WARSAW +       CLOUDY    34  32  93 NE13      30.50F WCI  25

$$

INZ006>009-017-018-025>027-221000-
NORTHEAST INDIANA

CITY           SKY/WX    TMP DP  RH WIND       PRES   REMARKS
AUBURN +       CLOUDY    34  32  93 NE13      30.53S WCI  25
FORT WAYNE     LGT RAIN  35  32  88 E14       30.51S WCI  26
HUNTINGTON +   LGT RAIN  34  32  94 NE12      30.49F WCI  25
KENDALLVILLE + CLOUDY    33  31  93 E8G17     30.51S WCI  26

$$

INZ028-029-035-036-043>045-051>053-221000-
WEST CENTRAL INDIANA

CITY           SKY/WX    TMP DP  RH WIND       PRES   REMARKS
CRAWFORDSVL +  CLOUDY    36  36 100 E14         N/A  WCI  27
GREENCASTLE +  CLOUDY    37  36  93 E10       30.36F WCI  30
LAFAYETTE      MIX PCPN  36  35  96 NE13      30.42F WCI  27
TERRE HAUTE    LGT RAIN  40  39  97 E10       30.34F WCI  33

$$

INZ030>032-037>040-046>048-054>057-064-065-221000-
CENTRAL INDIANA

CITY           SKY/WX    TMP DP  RH WIND       PRES   REMARKS
GREENWOOD *+   CLOUDY   N/A N/A N/A E10       30.40F
INDIANAPOLIS   LGT RAIN  38  36  92 E18       30.37F WCI  28
-EAGLE CREEK   LGT RAIN  38  34  85 E12       30.38F WCI  30
KOKOMO +       LGT RAIN  35  32  88 E13       30.45  WCI  26
MARION +       CLOUDY    35  32  90 E16G23    30.45F FOG     WCI  24
MT COMFORT *+  CLOUDY    36  36 100 E15G21    30.40F WCI  26
SHELBYVILLE    RAIN      40  35  83 E20       30.38F WCI  30
ZIONSVILLE +   LGT RAIN  35  34  96 E12       30.41F WCI  27

$$

INZ033-034-041-042-049-050-058-059-221000-
EAST CENTRAL INDIANA

CITY           SKY/WX    TMP DP  RH WIND       PRES   REMARKS
MUNCIE         LGT RAIN  37  33  85 E14       30.43F WCI  28
RICHMOND +     LGT RAIN  34  34 100 E23G29    30.40F WCI  22

$$

INZ060-061-067>069-081>083-085>088-221000-
SOUTHWEST INDIANA

CITY           SKY/WX    TMP DP  RH WIND       PRES   REMARKS
EVANSVILLE     RAIN      41  41 100 NE9       30.31F
HUNTINGBURG +  LGT RAIN  42  40  92 NE9       30.34R
WASHINGTON +   LGT RAIN  41  39  93 E13       30.33F

$$

INZ062-063-066-070>080-084-089>092-221000-
SOUTH CENTRAL AND SOUTHEAST INDIANA

CITY           SKY/WX    TMP DP  RH WIND       PRES   REMARKS
BATESVILLE +   CLOUDY    37  37 100 MISG      30.38F
BEDFORD +      RAIN      41  37  87 NE10      30.35F
BLOOMINGTON    LGT RAIN  40  37  89 E13       30.34F WCI  32
FRENCH LICK *+ CLOUDY    39 N/A N/A NE18G24   30.31F WCI  30
MADISON *+     CLOUDY    41  37  87 NE14      30.37S
NORTH VERNON + DRIZZLE   37  36  93 NE14      30.38F WCI  29
SEYMOUR +      LGT RAIN  41  39  93 NE15      30.37F

$$





USA.gov is the U.S. government's official web portal to all federal, state and local government web resources and services.